Location: Baix
(44.7118°N, 4.7648°E)
Time: 02:25:00
(UTC+00:00)

Cosmos 1300 Rocket - Pass Details

Date: 07 August 2020
Orbit: 603 x 625 km, 82.5° (Epoch: 19 September)

Event Time Altitude Azimuth Distance (km) Brightness Sun altitude
Exits shadow 00:57:53 56° 358° (N) 721 4.1 -26.8°
Drops below altitude 10° 01:01:21 10° 7° (N) 1,959 7.1 -26.6°
Sets 01:03:34 0° 8° (N) 2,867 8.2 -26.5°
